Wind_Speed
24 23 20 17 19 18 11 7 11 13 21 21 25 20 12 18 17 18 20 17 15 2 5 4 3 4 4 4 6 6 7 8 9 10 12 11 11 11 11 10 11 12 12 13 15 16 17 17 18
25 24 22 20 22 27 20 9 15 21 25 27 29 25 22 17 14 17 17 14 5 9 9 8 7 2 4 5 7 8 9 10 11 12 13 14 12 13 13 13 12 13 13 13 14 15 17 18 19
26 24 23 22 24 28 28 14 11 22 30 33 29 27 24 18 14 14 21 24 19 13 8 11 10 7 8 10 11 11 11 11 13 14 14 16 15 14 15 16 16 15 15 15 15 15 16 18 19
27 23 21 24 25 28 29 22 18 20 24 29 27 24 18 19 19 18 20 19 18 12 4 7 10 14 15 16 16 16 17 16 16 17 18 18 19 17 17 17 18 19 18 17 18 18 18 19 20
28 26 23 25 28 32 29 22 16 17 26 27 24 20 16 19 21 21 24 27 28 22 15 16 16 16 19 21 20 20 21 21 19 20 22 23 24 24 21 20 20 21 21 20 20 21 21 21 21
25 26 24 25 34 36 34 30 14 13 25 28 27 25 26 25 26 25 28 29 25 16 13 19 18 22 25 24 23 20 23 24 26 25 24 26 28 28 26 26 25 24 24 24 24 23 23 24 25
23 21 26 23 22 19 25 30 25 14 13 22 25 23 24 27 32 31 30 25 26 26 19 23 20 20 24 25 25 28 29 27 27 30 31 27 26 28 30 31 30 30 29 28 28 28 28 27 27
21 26 16 21 17 18 18 22 17 10 13 21 26 25 24 26 27 37 33 24 24 26 28 26 25 25 24 22 25 29 31 31 31 27 27 32 30 33 32 29 32 35 33 31 31 32 32 32 32
13 14 20 24 22 24 22 20 8 11 19 20 23 24 26 27 26 33 30 30 28 29 32 33 32 31 32 31 32 33 34 35 33 38 36 38 37 37 38 33 31 34 35 35 35 35 35 36 35
12 16 20 17 17 17 19 17 13 20 24 22 24 25 25 25 24 25 31 29 28 28 30 34 36 37 38 37 38 39 39 37 37 39 41 39 42 41 41 35 35 37 38 39 38 38 38 38 39
13 16 14 12 11 14 16 16 16 19 21 22 21 27 25 28 22 19 24 26 26 26 26 30 34 37 40 43 43 41 43 43 42 41 39 40 44 48 45 40 39 38 42 41 41 42 41 41 41
16 16 13 13 17 15 20 20 17 14 14 10 17 21 24 23 25 24 22 26 27 27 28 28 32 36 39 42 44 44 42 43 42 41 40 40 44 45 47 36 43 45 49 47 45 46 44 44 47
15 12 13 12 15 18 17 19 11 9 10 16 21 25 27 27 28 29 29 27 28 30 33 35 36 37 39 39 42 44 43 42 43 43 43 43 44 42 45 43 42 45 46 47 46 46 47 44 45
8 8 8 12 12 11 11 10 10 15 17 20 23 26 29 30 31 30 30 30 32 35 37 37 36 37 39 40 42 45 47 48 46 46 45 45 45 46 45 45 45 47 47 47 49 52 49 51 52
12 11 11 11 9 11 10 13 16 20 23 25 27 25 24 24 28 30 26 30 34 36 38 40 42 41 40 40 42 45 48 50 51 51 50 48 47 48 48 48 48 48 49 49 50 49 48 49 50
11 10 10 10 11 14 16 16 19 20 25 27 29 33 33 33 37 41 42 43 39 35 35 38 40 42 43 44 45 45 46 48 51 52 53 53 50 49 48 47 44 45 48 49 50 51 50 50 50
11 12 12 14 14 13 12 13 21 27 30 33 35 39 41 42 41 41 43 44 38 34 35 38 39 42 44 45 46 46 48 48 47 51 52 53 54 51 51 49 43 42 45 46 49 50 51 51 51
13 13 12 14 14 14 19 22 26 30 32 33 33 36 36 38 41 44 45 44 43 40 37 35 37 43 44 47 49 50 49 51 51 47 48 51 52 52 51 48 46 43 44 46 49 51 52 53 53
16 14 12 14 16 20 25 27 30 32 34 32 31 32 37 40 45 50 53 55 53 47 47 46 45 44 42 44 48 48 53 52 53 54 49 48 49 50 48 46 45 46 47 47 47 49 49 55 58
15 11 13 14 17 21 25 26 33 34 33 37 34 38 41 43 48 53 56 55 56 54 53 53 53 54 55 54 50 47 50 54 54 54 54 51 49 48 47 45 45 45 46 45 46 46 46 56 45
12 13 14 17 18 23 26 28 30 32 35 35 36 39 45 50 55 57 59 58 58 61 66 70 71 68 70 65 59 56 49 52 55 58 55 54 52 51 48 47 47 47 46 45 45 44 44 45 38
15 14 17 18 21 25 29 30 30 32 33 33 35 40 44 51 57 59 65 66 67 67 67 69 71 71 78 71 77 71 66 57 45 54 58 56 53 52 50 49 48 50 48 48 47 46 50 55 47
15 18 17 20 24 25 30 31 32 33 32 33 36 40 45 51 56 62 67 69 65 64 67 74 74 74 72 74 71 67 57 47 39 44 51 57 54 52 52 50 49 49 49 48 47 47 53 55 57
19 21 22 26 27 30 30 31 36 30 31 37 41 47 53 59 60 62 60 59 65 70 72 68 65 69 63 60 59 59 51 38 47 53 51 50 54 52 53 50 48 49 50 46 48 50 51 53 48
24 27 28 30 33 30 26 33 31 34 37 36 35 39 44 49 55 57 60 63 65 66 67 62 55 59 61 52 55 52 50 54 47 48 49 43 51 52 53 53 49 46 47 52 46 53 43 55 48
25 30 32 36 37 37 34 34 35 34 38 41 43 46 47 46 45 47 51 54 54 52 54 57 56 55 52 52 42 38 33 32 31 37 41 38 39 50 54 54 51 50 44 36 36 38 37 36 23
29 30 34 38 39 40 38 37 36 35 41 45 47 49 48 47 43 40 39 41 42 48 52 51 50 49 46 43 50 34 37 36 33 38 36 31 39 46 47 54 53 50 45 51 38 27 30 32 15
34 33 34 36 40 40 38 37 39 37 40 46 48 47 46 42 42 39 37 38 42 47 49 50 49 45 44 40 41 38 39 36 33 34 34 35 33 34 41 46 50 51 53 53 47 38 29 29 25
33 35 38 38 37 38 41 39 39 42 45 46 46 45 42 37 36 37 40 37 42 46 49 46 46 47 47 44 44 45 40 38 38 37 35 32 32 32 31 34 42 48 48 46 40 34 27 27 28
36 34 34 33 34 36 38 41 40 46 46 46 45 41 37 35 38 43 40 42 43 47 50 48 46 43 43 42 42 45 47 37 35 35 37 36 35 33 33 30 29 33 40 41 36 35 33 29 29
Wind_Direction
215 215 212 201 185 173 214 231 300 280 278 277 280 282 286 322 326 323 333 354 10 15 75 86 93 83 40 327 317 303 291 286 277 280 279 279 284 283 278 274 275 275 277 278 273 267 263 262 263
214 212 208 202 196 196 208 214 290 285 260 266 272 284 297 300 308 314 310 296 264 197 189 215 213 196 288 294 309 302 287 280 274 267 270 271 269 269 267 269 263 261 265 267 269 269 265 263 261
212 213 208 202 209 211 215 213 257 275 287 286 289 300 298 306 302 291 281 264 207 204 219 229 233 249 257 267 269 270 271 270 272 273 271 270 270 273 276 271 264 259 254 253 255 260 264 266 265
212 206 208 206 213 221 223 229 239 268 277 294 292 292 285 282 283 285 284 257 160 198 251 251 302 283 273 273 275 275 271 269 267 268 270 270 268 268 270 273 271 265 264 266 264 260 259 261 263
209 207 204 204 216 220 221 224 246 267 273 285 289 301 310 299 291 291 292 296 295 328 314 296 280 263 276 274 269 270 273 274 271 275 275 270 269 269 265 266 268 268 264 264 267 270 270 267 266
219 206 212 219 225 222 226 225 251 289 274 281 293 300 305 301 295 288 288 298 305 307 284 287 280 277 287 288 276 277 286 276 279 276 269 278 278 275 270 270 268 266 266 265 267 268 268 267 267
217 204 214 236 257 261 234 228 243 286 292 297 302 306 311 309 307 296 295 307 314 306 286 277 283 279 286 290 289 287 286 283 288 274 271 267 267 270 274 274 271 270 270 269 269 268 268 270 269
212 209 221 239 252 267 276 251 244 281 277 292 301 301 309 304 302 298 304 308 306 300 299 300 295 287 281 281 276 276 279 278 277 273 271 266 272 275 268 269 270 270 269 268 269 269 270 270 270
203 206 226 234 240 248 258 272 283 281 290 296 289 292 295 288 289 295 306 306 301 298 298 297 293 289 286 282 278 276 276 277 275 268 275 279 280 278 275 268 268 270 267 265 267 267 269 269 269
208 212 227 237 249 258 262 274 275 290 300 301 287 296 288 293 295 295 299 307 305 295 290 289 289 286 284 283 281 280 277 276 274 267 272 274 278 275 273 270 273 261 265 265 261 260 262 264 266
223 235 237 242 266 268 269 285 296 291 291 301 296 291 293 296 305 303 307 316 314 309 295 286 283 284 281 278 277 275 275 275 275 276 274 271 269 272 272 273 266 262 266 266 269 265 263 261 260
232 246 254 260 254 274 284 288 294 292 302 311 295 294 293 297 302 307 306 304 304 306 304 296 289 284 282 281 280 276 276 277 278 279 276 272 270 269 273 268 260 266 269 272 271 262 265 261 256
256 259 261 258 253 259 268 271 277 276 297 298 299 299 300 301 301 300 300 298 295 294 293 294 292 289 289 288 288 287 283 279 276 274 272 271 270 271 270 270 262 264 267 268 269 274 270 264 262
216 233 236 249 256 259 255 261 279 289 287 284 286 288 291 294 294 296 296 291 282 277 279 280 280 283 283 282 281 282 282 280 277 274 272 270 269 269 268 271 273 274 273 272 270 271 267 266 270
206 209 216 227 229 231 249 266 278 293 296 302 297 291 291 299 302 299 293 289 292 289 285 283 281 278 274 271 273 275 277 278 278 278 277 273 272 270 269 269 268 269 270 271 269 268 270 263 263
230 231 239 248 243 246 237 268 270 299 305 305 307 310 312 310 308 308 303 297 292 288 288 286 286 285 283 280 276 270 267 268 270 272 273 274 273 272 271 271 271 271 271 269 269 266 265 267 264
264 277 277 259 252 269 285 306 319 316 313 312 309 309 311 311 309 302 298 297 298 296 290 289 290 292 291 288 285 282 279 273 270 269 269 269 270 270 270 271 269 266 267 266 266 266 265 265 265
246 249 260 274 300 317 320 318 313 305 300 301 303 299 299 299 299 304 307 305 302 302 300 298 296 298 293 290 287 282 278 278 274 269 268 267 266 267 268 268 269 267 264 264 265 265 267 265 261
239 245 267 298 318 317 307 297 297 299 301 305 294 292 295 301 307 308 312 313 313 309 305 297 293 286 278 279 282 284 280 276 276 274 268 267 267 268 268 270 268 265 262 264 266 268 274 275 264
248 261 278 289 283 283 288 299 299 305 302 304 294 299 304 304 305 313 314 312 310 311 309 304 305 305 297 295 290 285 289 278 273 269 269 266 264 264 265 265 264 265 265 264 262 265 274 269 270
261 264 269 272 276 284 297 300 307 303 306 303 307 307 307 307 311 309 310 314 314 314 311 311 308 306 305 304 305 302 296 285 276 269 265 263 263 262 260 261 263 265 266 265 262 261 273 255 280
257 273 279 290 293 303 309 308 307 306 305 307 300 297 297 297 300 303 304 306 305 305 302 303 308 308 307 304 298 298 300 297 281 270 265 258 257 258 256 256 258 260 263 264 265 263 255 270 278
263 270 289 294 297 304 308 311 313 309 307 299 287 283 284 288 293 293 296 298 297 298 302 304 302 302 302 303 302 299 297 285 288 286 267 258 253 254 254 253 253 256 257 262 265 263 258 266 275
274 284 290 294 302 306 311 311 309 302 296 287 282 280 282 285 291 292 295 296 297 296 298 299 299 300 302 303 307 292 281 285 293 286 283 268 252 248 251 252 253 255 256 258 261 264 263 261 278
282 289 297 299 305 307 308 304 303 301 299 299 295 293 288 289 287 291 294 294 294 295 297 301 301 299 303 306 298 292 270 284 289 288 273 270 256 248 245 246 248 253 255 257 266 266 267 274 274
286 293 299 305 310 311 311 306 306 305 302 303 305 306 304 299 293 291 290 290 292 296 297 301 303 304 302 303 306 293 280 278 283 285 278 274 265 256 249 244 247 250 254 255 260 253 261 245 256
293 304 306 305 307 307 307 306 303 310 308 305 308 311 312 310 304 296 294 295 299 301 303 305 304 305 301 290 292 286 294 287 285 273 280 280 269 265 265 254 246 247 245 252 267 244 272 289 253
299 301 299 300 302 303 304 308 311 310 302 300 309 310 308 307 298 300 297 300 304 310 311 311 310 306 301 290 282 283 285 278 277 272 275 274 275 272 262 256 255 252 254 258 267 273 272 263 253
294 297 300 302 301 303 307 307 307 303 300 305 308 315 313 309 302 295 298 308 309 314 313 313 308 306 302 296 289 284 280 280 274 275 278 278 280 278 273 268 262 256 255 262 265 269 256 251 250
293 296 295 292 293 296 297 299 303 299 304 311 318 316 312 309 305 304 306 308 312 315 317 315 308 309 307 302 290 282 279 275 275 277 279 281 280 281 276 277 273 270 261 255 260 253 253 253 256
Height
5900 5904 5907 5911 5916 5913 5907 5906 5899 5902 5900 5900 5904 5909 5913 5917 5917 5916 5911 5908 5909 5913 5911 5909 5909 5906 5907 5910 5910 5910 5911 5911 5910 5911 5911 5909 5909 5909 5908 5907 5907 5908 5907 5907 5907 5906 5906 5906 5905
5897 5902 5906 5908 5910 5907 5906 5906 5901 5896 5900 5900 5902 5909 5914 5915 5914 5911 5906 5905 5907 5905 5906 5907 5907 5906 5909 5910 5910 5909 5908 5909 5909 5908 5908 5908 5906 5906 5905 5904 5903 5903 5903 5903 5903 5903 5903 5902 5902
5894 5899 5904 5906 5905 5904 5904 5905 5904 5897 5892 5894 5899 5906 5909 5912 5911 5907 5896 5894 5888 5897 5902 5904 5904 5906 5907 5907 5907 5907 5906 5905 5906 5906 5906 5907 5906 5904 5904 5902 5901 5900 5900 5899 5899 5899 5899 5899 5899
5892 5897 5903 5904 5902 5900 5904 5906 5904 5898 5896 5894 5899 5903 5908 5906 5904 5906 5902 5884 5880 5899 5902 5903 5903 5905 5905 5905 5904 5904 5905 5904 5904 5904 5904 5904 5903 5901 5901 5901 5901 5900 5900 5899 5897 5896 5895 5895 5896
5888 5894 5898 5900 5895 5895 5899 5902 5901 5898 5895 5893 5896 5899 5902 5899 5900 5901 5896 5890 5901 5901 5903 5897 5899 5901 5902 5902 5902 5901 5901 5902 5902 5903 5901 5900 5900 5899 5897 5897 5898 5897 5896 5896 5895 5894 5893 5892 5891
5886 5892 5895 5896 5891 5892 5897 5899 5898 5897 5893 5892 5896 5897 5897 5895 5891 5893 5892 5894 5901 5900 5895 5895 5899 5897 5897 5898 5898 5899 5898 5898 5898 5897 5896 5897 5897 5897 5894 5894 5893 5893 5892 5892 5891 5891 5889 5889 5888
5884 5889 5892 5889 5885 5893 5897 5898 5897 5896 5897 5892 5891 5894 5895 5893 5882 5879 5882 5890 5888 5887 5892 5896 5895 5897 5898 5897 5895 5893 5891 5891 5889 5889 5890 5889 5889 5890 5891 5890 5890 5889 5888 5888 5887 5886 5886 5885 5884
5883 5888 5888 5885 5889 5894 5894 5896 5898 5895 5894 5892 5889 5892 5895 5894 5886 5866 5877 5887 5886 5885 5885 5888 5890 5890 5892 5891 5888 5886 5885 5884 5883 5884 5883 5883 5883 5884 5883 5883 5884 5883 5883 5882 5882 5882 5881 5881 5879
5881 5886 5884 5886 5890 5892 5893 5893 5894 5893 5892 5893 5891 5891 5889 5887 5887 5874 5873 5875 5882 5882 5880 5880 5881 5881 5881 5881 5881 5880 5877 5877 5876 5876 5876 5875 5875 5876 5876 5874 5875 5877 5876 5875 5875 5875 5876 5875 5874
5880 5882 5883 5886 5889 5892 5891 5892 5893 5891 5889 5889 5887 5887 5883 5881 5884 5879 5874 5871 5872 5876 5875 5874 5874 5873 5872 5872 5870 5869 5868 5869 5869 5869 5869 5867 5866 5867 5867 5865 5866 5867 5867 5868 5866 5865 5866 5866 5866
5879 5880 5883 5885 5885 5886 5887 5888 5887 5886 5886 5885 5883 5880 5878 5877 5878 5879 5873 5871 5867 5866 5868 5868 5866 5865 5863 5861 5861 5861 5860 5859 5859 5858 5858 5858 5857 5857 5856 5856 5856 5856 5856 5857 5858 5857 5856 5856 5855
5878 5878 5881 5883 5882 5882 5881 5881 5883 5882 5884 5882 5879 5876 5874 5876 5875 5875 5876 5869 5867 5862 5858 5859 5857 5855 5854 5851 5849 5849 5849 5849 5848 5848 5849 5848 5847 5847 5844 5846 5846 5846 5845 5844 5845 5846 5845 5845 5843
5876 5877 5877 5879 5879 5879 5879 5878 5881 5880 5882 5880 5877 5874 5871 5871 5871 5870 5870 5870 5866 5858 5852 5848 5849 5849 5846 5844 5840 5837 5838 5839 5839 5840 5839 5838 5836 5836 5834 5836 5837 5836 5835 5834 5833 5832 5832 5833 5832
5873 5873 5875 5875 5876 5877 5877 5877 5877 5877 5879 5877 5875 5871 5868 5866 5865 5865 5863 5861 5857 5852 5847 5844 5843 5842 5840 5837 5833 5830 5827 5826 5827 5826 5826 5826 5825 5825 5825 5824 5824 5824 5823 5824 5822 5821 5821 5821 5820
5870 5871 5871 5873 5874 5874 5874 5874 5874 5873 5871 5868 5866 5864 5864 5862 5859 5856 5854 5848 5845 5843 5839 5834 5829 5827 5827 5827 5826 5824 5821 5817 5814 5811 5810 5812 5813 5813 5813 5813 5814 5813 5811 5810 5809 5808 5807 5808 5807
5869 5870 5870 5871 5871 5873 5873 5873 5872 5868 5863 5861 5857 5853 5853 5853 5849 5844 5840 5838 5836 5833 5828 5824 5820 5815 5813 5812 5810 5809 5807 5806 5804 5801 5798 5796 5798 5798 5799 5800 5801 5799 5797 5796 5796 5795 5796 5794 5791
5867 5867 5868 5868 5868 5869 5869 5866 5863 5860 5855 5851 5849 5843 5841 5838 5835 5833 5830 5827 5826 5824 5820 5817 5811 5807 5805 5803 5800 5796 5793 5791 5789 5788 5786 5784 5783 5784 5784 5785 5788 5788 5787 5785 5783 5780 5779 5778 5777
5864 5863 5863 5862 5863 5861 5859 5859 5857 5854 5850 5848 5845 5839 5835 5831 5826 5823 5819 5817 5815 5814 5813 5810 5807 5802 5796 5792 5786 5782 5779 5775 5772 5771 5770 5769 5768 5769 5771 5773 5774 5775 5773 5771 5768 5764 5763 5763 5765
5859 5859 5859 5858 5858 5858 5855 5854 5851 5847 5843 5841 5836 5832 5828 5821 5816 5812 5809 5805 5803 5801 5798 5796 5794 5790 5784 5780 5775 5769 5764 5762 5760 5758 5756 5756 5756 5755 5758 5761 5762 5761 5759 5759 5757 5753 5752 5751 5750
5855 5856 5857 5857 5856 5854 5851 5850 5842 5840 5837 5833 5829 5823 5817 5811 5806 5804 5800 5796 5791 5787 5781 5777 5773 5770 5766 5762 5758 5754 5749 5746 5745 5743 5741 5742 5742 5742 5743 5745 5746 5747 5747 5747 5747 5744 5742 5739 5736
5853 5853 5852 5853 5853 5848 5846 5842 5838 5833 5829 5824 5818 5811 5807 5802 5798 5796 5791 5786 5779 5773 5765 5759 5756 5751 5748 5743 5740 5737 5735 5730 5727 5727 5727 5726 5728 5729 5729 5730 5731 5731 5731 5733 5734 5735 5735 5726 5723
5848 5849 5849 5847 5845 5843 5839 5836 5832 5828 5822 5816 5809 5804 5800 5794 5789 5784 5780 5775 5769 5763 5757 5749 5742 5734 5730 5726 5723 5719 5718 5714 5709 5710 5709 5710 5712 5714 5715 5717 5719 5718 5718 5720 5722 5723 5722 5712 5714
5846 5844 5844 5842 5839 5837 5833 5827 5822 5818 5814 5809 5805 5801 5795 5789 5784 5778 5772 5766 5760 5753 5745 5739 5734 5727 5720 5713 5706 5702 5702 5700 5695 5694 5693 5694 5695 5698 5700 5702 5704 5705 5706 5706 5707 5709 5709 5707 5704
5840 5839 5838 5835 5833 5830 5825 5821 5816 5813 5808 5802 5799 5794 5787 5782 5776 5769 5762 5755 5749 5742 5736 5729 5722 5717 5710 5703 5692 5685 5688 5685 5683 5680 5681 5680 5680 5681 5685 5689 5692 5692 5693 5694 5693 5694 5693 5693 5696
5834 5832 5831 5829 5826 5824 5818 5813 5808 5805 5800 5796 5792 5787 5781 5776 5769 5761 5753 5746 5738 5733 5727 5719 5712 5706 5699 5692 5682 5673 5671 5671 5668 5666 5665 5663 5665 5666 5668 5673 5676 5678 5680 5680 5678 5681 5682 5683 5684
5829 5826 5824 5818 5815 5812 5809 5805 5801 5795 5790 5785 5780 5774 5770 5764 5759 5751 5743 5735 5728 5722 5715 5707 5701 5695 5688 5681 5671 5664 5659 5658 5656 5656 5654 5653 5651 5653 5654 5657 5661 5665 5668 5672 5671 5669 5672 5669 5673
5822 5821 5816 5810 5806 5802 5799 5796 5791 5787 5778 5772 5769 5764 5756 5749 5743 5738 5733 5727 5720 5712 5704 5696 5689 5682 5677 5670 5665 5657 5652 5647 5645 5646 5644 5641 5640 5641 5642 5644 5647 5650 5655 5655 5656 5659 5659 5661 5663
5814 5813 5810 5805 5799 5795 5792 5786 5779 5778 5771 5765 5761 5755 5748 5742 5735 5729 5724 5719 5712 5703 5692 5684 5678 5672 5665 5659 5652 5650 5645 5639 5634 5637 5633 5631 5630 5630 5630 5631 5634 5639 5641 5642 5644 5648 5650 5652 5655
5810 5804 5799 5796 5792 5785 5779 5779 5774 5768 5763 5759 5755 5748 5739 5732 5726 5720 5715 5710 5703 5693 5684 5676 5668 5661 5653 5647 5641 5637 5635 5631 5630 5628 5625 5623 5621 5621 5621 5621 5623 5628 5631 5633 5636 5639 5642 5644 5645
5800 5797 5793 5788 5785 5780 5774 5771 5766 5756 5753 5749 5742 5736 5729 5723 5715 5709 5702 5697 5692 5681 5674 5667 5658 5651 5643 5635 5629 5625 5622 5622 5621 5618 5616 5614 5613 5613 5613 5613 5613 5617 5621 5626 5629 5631 5634 5636 5637